Back to catalog

STARLINK-31206

AliveCommunicationsVLEO
NORAD 59028·PAYLOAD·🇺🇸 United States

Launched Feb 25, 2024 from Cape Canaveral Space Force Station

Loading…

Next Passes (next 24 hours)

TLE

FreshSource: CelesTrak SupGP

Epoch: Sep 14, 2026, 13:58 UTC

1 59028C 24038F   26257.58243056  .00008982  00000+0  32544-3 0  2570
2 59028  43.0017 335.2565 0001606 278.1349 116.6509 15.27562343    14

Track STARLINK-31206 in real time with AllMySat

Download on the App Store